Preview of NWS' New Version of Forecast
This preview is not operational and should not be used for support decisions.

Regional Weather Roundup (RWR)

Issued by National Weather Service (NWS)

                            
000
ASUS44 KJAN 191710
RWRMS 

MISSISSIPPI HOURLY WEATHER ROUNDUP
NATIONAL WEATHER SERVICE JACKSON MS
1200 PM CDT FRI APR 19 2019

NOTE: "FAIR: INDICATES FEW OR NO CLOUDS BELOW 12,000 FEET WITH NO
SIGNIFICANT WEATHER AND/OR OBSTRUCTIONS TO VISIBILITY.

MSZ001>002-007>008-010>013-018>021-025>028-034>036-191800-
NORTHWEST MISSISSIPPI
  
CITY           SKY/WX    TMP DP  RH WIND       PRES   REMARKS
BATESVILLE     CLOUDY    52  43  71 NW8G16    29.77S                  
CLARKSDALE     CLOUDY    54  46  76 NW20      29.80S                  
CLEVELAND      CLOUDY    54  44  67 N18G26    29.81S                  
GREENWOOD      CLOUDY    53  43  68 NW7G18    29.79S                  
GREENVILLE     CLOUDY    54  46  74 NW10      29.82R                  
OLIVE BRANCH   CLOUDY    46  46 100 NW17G29   29.77R                  
OXFORD         PTSUNNY   48  43  81 NW15G24   29.76S                  
TUNICA           N/A     50  39  66 N22G30    29.80R                  
WINONA         CLOUDY    50  43  78 NW7       29.78R                  
$$

MSZ003>006-009-014>017-022>024-029>033-037>039-191800-
NORTHEAST MISSISSIPPI
  
CITY           SKY/WX    TMP DP  RH WIND       PRES   REMARKS
ABERDEEN       CLOUDY    50  50 100 NW13G22   29.71R                  
COLUMBUS AFB   LGT RAIN  52  45  76 NW16G25   29.69R                  
CORINTH        DRIZZLE   48  45  87 NW17G23   29.67S                  
GOLDN TRIANGLE LGT RAIN  49  47  93 NW16G29   29.71R FOG              
STARKVILLE     CLOUDY    50  43  76 NW9G23    29.74R                  
TUPELO         CLOUDY    50  43  77 NW15G26   29.69S                  
$$

MSZ040-058-191800-
CENTRAL MISSISSIPPI
  
CITY           SKY/WX    TMP DP  RH WIND       PRES   REMARKS
JACKSON INTL   LGT RAIN  55  46  71 NW12G20   29.81R                  
JACKSON HAWKNS LGT RAIN  55  48  77 NW8       29.81S                  
MADISON        FAIR      55  43  62 NW10G21   29.80R                  
MERIDIAN KEY   CLOUDY    55  46  71 W15G21    29.75S                  
MERIDIAN NAS   CLOUDY    53  47  79 NW20G31   29.74R                  
RAYMOND        FAIR      59  48  67 NW12G23   29.80F                  
VICKSBURG VKS  PTSUNNY   59  45  58 NW12G21   29.84F                  
$$

MSZ059>079-191800-
SOUTH MISSISSIPPI
  
CITY           SKY/WX    TMP DP  RH WIND       PRES   REMARKS
HATTIESBURG    FAIR      59  47  64 NW15G26   29.80S                  
LAUREL         PTSUNNY   58  49  73 W14G22    29.78S                  
MCCOMB         FAIR      63  42  46 NW20G26   29.84F                  
NATCHEZ        PTSUNNY   59  48  67 W10       29.87F                  
PINE BELT      PTSUNNY   58  48  69 NW14G22   29.80F                  
$$

MSZ080>082-191800-
COASTAL MISSISSIPPI
  
CITY           SKY/WX    TMP DP  RH WIND       PRES   REMARKS
BAY ST LOUIS   MOSUNNY   64  46  52 NW20G26   29.81F                  
BILOXI         CLOUDY    64  46  53 NW14G23   29.79F                  
PASCAGOULA     PTSUNNY   64  47  53 NW14G26   29.78R                  
GULFPORT       PTSUNNY   64  47  53 NW22G30   29.79F                  
$$

LAZ007>009-015>016-023>026-191800-
NORTHEAST LOUISIANA
  
CITY           SKY/WX    TMP DP  RH WIND       PRES   REMARKS
BASTROP        PTSUNNY   62  44  51 NW17G23   29.87S                  
TALLULAH/VBURG FAIR      61  45  55 NW9G22    29.84F                  
VIDALIA        PTSUNNY   62  49  63 NW15      29.87F                  
$$